Location: Foulognes
(49.1413°N, 0.8183°W)
Time: 09:49:01
(UTC+00:00)

STARLINK-81 - Pass Details

Date: 21 October 2019
Orbit: 549 x 551 km, 53.0° (Epoch: 21 November)

Event Time Altitude Azimuth Distance (km) Brightness Sun altitude
Rises 19:18:30 0° 288° (WNW) 2,720 8.6 -22.9°
Reaches altitude 10° 19:20:47 10° 293° (WNW) 1,826 7.3 -23.3°
Enters shadow 19:24:34 54° 353° (N) 673 4.0 -23.9°
